| time (UTC) | temp C | wind direction | speed KPH | gust KPH | rain 1hr cm | rain 24hr cm | rain mn cm | humidity % | barometer mb |
| 20260505125003 | 15 | 344 | 4.8 | 19.3 | 0.00 | 0.00 | 0.00 | 52 | 1011.9 |
| 20260505124003 | 16 | 336 | 3.2 | 20.9 | 0.00 | 0.00 | 0.00 | 48 | 1011.8 |
| 20260505123003 | 16 | 328 | 4.8 | 20.9 | 0.00 | 0.00 | 0.00 | 51 | 1011.9 |
| 20260505122003 | 16 | 326 | 4.8 | 19.3 | 0.00 | 0.00 | 0.00 | 52 | 1012.0 |
| 20260505121003 | 16 | 328 | 3.2 | 17.7 | 0.00 | 0.00 | 0.00 | 52 | 1012.0 |
| 20260505120004 | 15 | 342 | 4.8 | 25.7 | 0.00 | 0.00 | 0.00 | 54 | 1011.9 |
| 20260505115003 | 15 | 327 | 3.2 | 19.3 | 0.00 | 0.00 | 0.00 | 53 | 1011.9 |
| 20260505114217 | 15 | 336 | 3.2 | 25.7 | 0.00 | 0.00 | 0.00 | 56 | 1011.9 |
| 20260505113003 | 15 | 331 | 4.8 | 19.3 | 0.00 | 0.00 | 0.00 | 57 | 1011.9 |
| 20260505112003 | 15 | 334 | 4.8 | 17.7 | 0.00 | 0.00 | 0.00 | 56 | 1012.0 |
| 20260505111003 | 15 | 335 | 3.2 | 20.9 | 0.00 | 0.00 | 0.00 | 56 | 1011.9 |
| 20260505102003 | 13 | 336 | 4.8 | 17.7 | 0.00 | 0.00 | 0.00 | 61 | 1011.8 |
| 20260505101003 | 13 | 324 | 3.2 | 17.7 | 0.00 | 0.00 | 0.00 | 62 | 1011.9 |
| 20260505100003 | 13 | 320 | 6.4 | 17.7 | 0.00 | 0.00 | 0.00 | 63 | 1011.9 |
| 20260505095217 | 13 | 326 | 6.4 | 20.9 | 0.00 | 0.00 | 0.00 | 63 | 1011.9 |
| 20260505094003 | 13 | 334 | 3.2 | 17.7 | 0.00 | 0.00 | 0.00 | 63 | 1011.8 |
| 20260505093003 | 13 | 334 | 4.8 | 19.3 | 0.00 | 0.00 | 0.00 | 65 | 1011.8 |
| 20260505092003 | 12 | 323 | 4.8 | 17.7 | 0.00 | 0.00 | 0.00 | 65 | 1011.9 |
| 20260505091003 | 12 | 328 | 4.8 | 19.3 | 0.00 | 0.00 | 0.00 | 66 | 1011.9 |
| 20260505090003 | 12 | 331 | 3.2 | 17.7 | 0.00 | 0.00 | 0.00 | 68 | 1011.8 |
| 20260505085003 | 12 | 329 | 3.2 | 20.9 | 0.00 | 0.00 | 0.00 | 69 | 1011.7 |
| 20260505084003 | 12 | 337 | 3.2 | 19.3 | 0.00 | 0.00 | 0.00 | 70 | 1011.7 |
| 20260505083003 | 11 | 334 | 4.8 | 20.9 | 0.00 | 0.00 | 0.00 | 70 | 1011.6 |
| 20260505082003 | 11 | 332 | 3.2 | 17.7 | 0.00 | 0.00 | 0.00 | 71 | 1011.6 |
| 20260505081003 | 11 | 330 | 4.8 | 17.7 | 0.00 | 0.00 | 0.00 | 72 | 1011.5 |
| 20260505080218 | 11 | 331 | 4.8 | 16.1 | 0.00 | 0.00 | 0.00 | 73 | 1011.5 |
| 20260505075003 | 11 | 330 | 3.2 | 17.7 | 0.00 | 0.00 | 0.00 | 76 | 1011.4 |
| 20260505074003 | 11 | 340 | 4.8 | 25.7 | 0.00 | 0.00 | 0.00 | 77 | 1011.4 |
| 20260505073003 | 11 | 330 | 3.2 | 16.1 | 0.00 | 0.00 | 0.00 | 78 | 1011.4 |
| 20260505072003 | 10 | 339 | 3.2 | 16.1 | 0.00 | 0.00 | 0.00 | 78 | 1011.3 |
| 20260505071003 | 10 | 334 | 1.6 | 12.9 | 0.00 | 0.00 | 0.00 | 79 | 1011.2 |
| 20260505070218 | 10 | 348 | 4.8 | 17.7 | 0.00 | 0.00 | 0.00 | 78 | 1011.2 |
| 20260505065003 | 11 | 338 | 3.2 | 20.9 | 0.00 | 0.00 | 0.00 | 78 | 1011.2 |
| 20260505064003 | 11 | 333 | 3.2 | 17.7 | 0.00 | 0.00 | 0.00 | 79 | 1011.1 |
| 20260505063003 | 11 | 351 | 0.0 | 22.5 | 0.00 | 0.00 | 0.00 | 80 | 1011.1 |
| 20260505062003 | 10 | 337 | 1.6 | 9.7 | 0.00 | 0.03 | 0.00 | 81 | 1011.0 |
| 20260505061217 | 10 | 336 | 1.6 | 9.7 | 0.00 | 0.03 | 0.00 | 81 | 1011.1 |
| 20260505060003 | 10 | 333 | 1.6 | 17.7 | 0.00 | 0.03 | 0.00 | 82 | 1011.1 |
| 20260505055217 | 10 | 330 | 1.6 | 17.7 | 0.00 | 0.03 | 0.00 | 82 | 1011.1 |
| 20260505054003 | 10 | 342 | 1.6 | 16.1 | 0.00 | 0.03 | 0.00 | 83 | 1011.1 |
| 20260505053217 | 10 | 337 | 1.6 | 11.3 | 0.00 | 0.03 | 0.00 | 83 | 1011.0 |
| 20260505052003 | 9 | 338 | 3.2 | 17.7 | 0.00 | 0.03 | 0.00 | 83 | 1011.0 |
| 20260505051003 | 9 | 344 | 1.6 | 17.7 | 0.00 | 0.03 | 0.00 | 83 | 1011.0 |
| 20260505041003 | 8 | 350 | 1.6 | 19.3 | 0.00 | 0.05 | 0.00 | 82 | 1010.8 |
| 20260505040217 | 8 | 353 | 1.6 | 20.9 | 0.00 | 0.05 | 0.00 | 82 | 1010.7 |
| 20260505035003 | 8 | 345 | 1.6 | 17.7 | 0.00 | 0.10 | 0.00 | 82 | 1010.7 |
| 20260505034003 | 8 | 314 | 1.6 | 8.0 | 0.00 | 0.10 | 0.00 | 82 | 1010.8 |
| 20260505033216 | 8 | 330 | 0.0 | 19.3 | 0.00 | 0.10 | 0.00 | 82 | 1010.8 |
| 20260505032003 | 8 | 282 | 1.6 | 12.9 | 0.00 | 0.13 | 0.00 | 82 | 1010.8 |
| 20260505031003 | 8 | 342 | 1.6 | 11.3 | 0.00 | 0.15 | 0.00 | 83 | 1010.8 |
| 20260505030003 | 8 | 346 | 1.6 | 8.0 | 0.00 | 0.15 | 0.00 | 82 | 1010.7 |
| 20260505025003 | 8 | 305 | 1.6 | 11.3 | 0.00 | 0.15 | 0.00 | 83 | 1010.8 |
| 20260505024003 | 8 | 326 | 3.2 | 17.7 | 0.00 | 0.15 | 0.00 | 83 | 1010.8 |
| 20260505023003 | 8 | 354 | 3.2 | 20.9 | 0.00 | 0.15 | 0.00 | 84 | 1010.9 |
| 20260505022218 | 8 | 347 | 1.6 | 16.1 | 0.00 | 0.15 | 0.00 | 84 | 1010.9 |
| 20260505021218 | 8 | 336 | 3.2 | 17.7 | 0.00 | 0.15 | 0.00 | 84 | 1011.0 |
| 20260505020003 | 8 | 344 | 3.2 | 19.3 | 0.00 | 0.15 | 0.00 | 85 | 1011.1 |
| 20260505015218 | 8 | 327 | 1.6 | 11.3 | 0.00 | 0.18 | 0.00 | 85 | 1011.1 |
| 20260505014003 | 8 | 343 | 3.2 | 20.9 | 0.00 | 0.18 | 0.00 | 86 | 1011.2 |
| 20260505013003 | 8 | 346 | 1.6 | 17.7 | 0.00 | 0.18 | 0.00 | 86 | 1011.2 |
| 20260505012003 | 8 | 339 | 1.6 | 11.3 | 0.00 | 0.20 | 0.00 | 86 | 1011.2 |
| 20260505011003 | 8 | 350 | 3.2 | 17.7 | 0.00 | 0.20 | 0.00 | 86 | 1011.2 |
| 20260505010003 | 8 | 333 | 3.2 | 16.1 | 0.00 | 0.23 | 0.00 | 86 | 1011.2 |
| 20260505005003 | 8 | 338 | 4.8 | 19.3 | 0.00 | 0.23 | 0.00 | 86 | 1011.3 |
| 20260505004003 | 8 | 348 | 3.2 | 22.5 | 0.00 | 0.23 | 0.00 | 87 | 1011.3 |
| 20260505003003 | 8 | 355 | 3.2 | 17.7 | 0.00 | 0.23 | 0.00 | 87 | 1011.3 |
| 20260505002217 | 8 | 340 | 3.2 | 17.7 | 0.00 | 0.25 | 0.00 | 87 | 1011.4 |
| 20260505001217 | 8 | 339 | 3.2 | 16.1 | 0.00 | 0.28 | 0.00 | 88 | 1011.3 |
| 20260505000003 | 8 | 350 | 3.2 | 22.5 | 0.00 | 0.30 | 0.00 | 88 | 1011.4 |
| 20260504235003 | 8 | 319 | 0.0 | 16.1 | 0.00 | 0.33 | 0.00 | 87 | 1011.5 |
| 20260504234003 | 8 | 348 | 0.0 | 11.3 | 0.00 | 0.38 | 0.00 | 87 | 1011.5 |
| 20260504233003 | 8 | 302 | 0.0 | 11.3 | 0.00 | 0.43 | 0.00 | 87 | 1011.5 |
| 20260504232217 | 8 | 276 | 0.0 | 9.7 | 0.00 | 0.43 | 0.00 | 86 | 1011.5 |
| 20260504231003 | 8 | 247 | 0.0 | 3.2 | 0.00 | 0.46 | 0.00 | 86 | 1011.5 |
| 20260504230003 | 8 | 360 | 0.0 | 8.0 | 0.00 | 0.61 | 0.00 | 86 | 1011.5 |
| 20260504225003 | 8 | 325 | 0.0 | 6.4 | 0.00 | 0.61 | 0.00 | 86 | 1011.5 |
| 20260504224217 | 9 | 231 | 0.0 | 1.6 | 0.00 | 0.69 | 0.00 | 86 | 1011.6 |
| 20260504223216 | 9 | 338 | 0.0 | 8.0 | 0.00 | 0.79 | 0.00 | 86 | 1011.6 |
| 20260504222216 | 9 | 351 | 3.2 | 11.3 | 0.00 | 0.81 | 0.00 | 86 | 1011.6 |
| 20260504221216 | 9 | 339 | 3.2 | 25.7 | 0.00 | 0.84 | 0.00 | 87 | 1011.6 |
| 20260504220004 | 9 | 323 | 1.6 | 11.3 | 0.00 | 0.84 | 0.00 | 87 | 1011.6 |
| 20260504215003 | 8 | 340 | 19.3 | 19.3 | 0.00 | 0.86 | 0.84 | 87 | 1011.6 |
| 20260504214218 | 8 | 339 | 11.3 | 11.3 | 0.00 | 0.86 | 0.84 | 86 | 1011.7 |
| 20260504213003 | 8 | 0 | 0.0 | 0.0 | 0.00 | 0.86 | 0.84 | 86 | 1011.7 |
| 20260504212003 | 8 | 0 | 0.0 | 0.0 | 0.00 | 0.86 | 0.84 | 85 | 1011.7 |
| 20260504211003 | 8 | 0 | 0.0 | 0.0 | 0.00 | 0.86 | 0.84 | 85 | 1011.8 |
| 20260504210003 | 8 | 0 | 0.0 | 0.0 | 0.00 | 0.86 | 0.84 | 84 | 1011.8 |
| 20260504205003 | 8 | 0 | 1.6 | 1.6 | 0.00 | 0.86 | 0.84 | 84 | 1011.7 |
| 20260504204003 | 9 | 0 | 0.0 | 0.0 | 0.00 | 0.86 | 0.84 | 83 | 1011.8 |
| 20260504203003 | 9 | 0 | 0.0 | 0.0 | 0.00 | 0.86 | 0.84 | 83 | 1011.7 |
| 20260504202218 | 9 | 0 | 0.0 | 0.0 | 0.00 | 0.86 | 0.84 | 83 | 1011.7 |
| 20260504201003 | 9 | 0 | 0.0 | 0.0 | 0.00 | 0.86 | 0.84 | 82 | 1011.7 |
| 20260504200003 | 10 | 0 | 0.0 | 0.0 | 0.00 | 0.86 | 0.84 | 81 | 1011.5 |
| 20260504195218 | 10 | 0 | 0.0 | 0.0 | 0.00 | 0.86 | 0.84 | 80 | 1011.5 |
| 20260504194217 | 10 | 0 | 0.0 | 0.0 | 0.00 | 0.86 | 0.84 | 79 | 1011.5 |
| 20260504193003 | 10 | 0 | 0.0 | 0.0 | 0.00 | 0.86 | 0.84 | 78 | 1011.5 |
| 20260504192003 | 11 | 0 | 0.0 | 0.0 | 0.00 | 0.86 | 0.84 | 76 | 1011.4 |
| 20260504191003 | 11 | 0 | 0.0 | 0.0 | 0.00 | 0.86 | 0.84 | 76 | 1011.4 |
| 20260504190003 | 11 | 0 | 0.0 | 0.0 | 0.00 | 0.86 | 0.84 | 75 | 1011.4 |
| 20260504185003 | 11 | 0 | 0.0 | 0.0 | 0.00 | 0.86 | 0.84 | 74 | 1011.4 |
| 20260504184003 | 12 | 287 | 0.0 | 6.4 | 0.00 | 0.86 | 0.84 | 73 | 1011.4 |
| 20260504183003 | 12 | 360 | 16.1 | 16.1 | 0.00 | 0.86 | 0.84 | 71 | 1011.3 |
| 20260504182003 | 12 | 313 | 0.0 | 8.0 | 0.00 | 0.86 | 0.84 | 70 | 1011.2 |
| 20260504181003 | 12 | 323 | 0.0 | 11.3 | 0.00 | 0.86 | 0.84 | 70 | 1011.2 |
| 20260504180003 | 13 | 340 | 1.6 | 17.7 | 0.00 | 0.86 | 0.84 | 70 | 1011.2 |
| 20260504175003 | 13 | 335 | 1.6 | 17.7 | 0.00 | 0.86 | 0.84 | 69 | 1011.1 |
| 20260504174003 | 13 | 0 | 0.0 | 0.0 | 0.00 | 0.86 | 0.84 | 67 | 1011.1 |
| 20260504173003 | 13 | 311 | 1.6 | 3.2 | 0.00 | 0.86 | 0.84 | 66 | 1011.1 |
| 20260504172003 | 13 | 289 | 0.0 | 11.3 | 0.00 | 0.86 | 0.84 | 63 | 1011.1 |
| 20260504171003 | 13 | 334 | 0.0 | 8.0 | 0.00 | 0.86 | 0.84 | 64 | 1011.1 |
| 20260504160218 | 14 | 345 | 0.0 | 16.1 | 0.00 | 0.86 | 0.84 | 59 | 1010.9 |
| 20260504151003 | 16 | 341 | 3.2 | 22.5 | 0.00 | 0.86 | 0.84 | 49 | 1011.0 |
| 20260504141003 | 17 | 325 | 3.2 | 25.7 | 0.00 | 0.86 | 0.84 | 53 | 1010.9 |